User: anonymous   Login
Location: Fredericksburg
(30.2750°N, 98.8720°W)
Time: 21:00:35
(UTC-06:00)
Language:

PCSat - Orbit

View from above orbital plane
View from above orbital plane
View from above satellite
View from above satellite

Ground track
Ground track

The orbit data is extracted from the following two-line orbital elements,

1 26931U 01043C   19019.46384870 -.00000030  00000-0  20345-4 0  9991
2 26931  67.0515  31.3362 0005626 264.9370  95.1089 14.30529702903484
Epoch (UTC): 19 January 2019 11:07:56
Eccentricity: 0.0005626
inclination: 67.0515°
perigee height: 786 km
apogee height: 794 km
right ascension of ascending node: 31.3362°
argument of perigee: 264.9370°
revolutions per day: 14.30529702
mean anomaly at epoch: 95.1089°
orbit number at epoch: 90348

The dashed part of the orbit path shows where the satellite is in the earth's shadow,  

DLR